Temperature
9 9 9 8 8 8 8 8 8 8 8 7 7 8 8 9 9 9 10 10 10 10 10 10 10 10 10 10 10 10 9 9 9 9 9 9 9 9 9 9 10 10 10
9 9 8 8 8 8 7 7 7 7 7 7 7 7 8 8 8 9 9 9 10 10 10 10 10 10 10 10 10 10 10 9 9 9 9 9 9 9 9 9 9 9 9
9 9 8 8 8 8 7 7 7 7 7 7 7 7 7 7 8 8 8 8 9 9 10 10 10 10 10 10 10 9 9 9 9 9 9 9 9 8 8 8 8 8 8
9 9 8 8 8 8 8 7 7 7 7 7 7 7 7 7 7 7 8 8 8 9 9 9 10 10 9 9 9 9 9 9 8 8 8 8 8 8 8 8 8 8 8
8 8 8 8 8 8 7 7 7 7 7 7 7 7 7 7 7 7 8 8 8 8 9 9 9 9 9 9 9 8 8 8 8 8 8 8 8 7 7 7 7 7 7
9 8 8 8 8 8 7 7 7 7 7 6 6 6 6 7 7 7 8 8 8 8 8 8 8 8 8 8 8 8 8 7 7 7 7 7 7 7 7 7 7 7 6
9 8 8 8 8 8 7 7 7 6 6 6 5 6 6 7 7 8 8 8 7 7 7 7 7 7 7 7 7 7 7 7 7 6 6 6 6 6 6 6 6 6 6
9 8 8 8 8 7 7 7 7 6 6 6 5 4 4 5 6 6 7 7 7 7 6 6 6 6 6 6 6 7 7 7 6 6 6 6 6 6 6 6 6 6 6
8 8 8 8 8 7 7 7 6 6 6 6 5 4 4 4 4 5 6 6 6 6 6 5 5 5 5 5 5 6 6 6 6 6 5 5 5 5 6 6 6 6 6
8 8 8 7 7 7 7 7 6 6 5 5 5 5 4 4 3 3 3 4 5 5 5 5 5 5 5 5 5 5 5 5 5 5 4 4 4 5 5 5 6 6 6
7 7 7 7 7 7 6 6 6 6 5 5 5 4 4 4 3 2 2 3 4 4 4 4 4 4 4 4 4 4 4 4 4 4 4 3 3 4 4 5 5 6 6
7 6 6 6 6 6 6 6 5 5 5 5 4 4 4 3 3 3 2 2 2 3 3 3 3 3 4 4 4 4 4 4 3 3 3 3 3 3 3 4 4 5 5
6 6 6 6 6 6 6 5 5 5 4 4 4 4 3 3 3 2 2 2 1 2 2 2 3 3 3 3 3 3 3 3 3 3 2 2 2 2 2 2 3 3 4
6 6 6 5 5 5 5 4 4 4 4 3 3 3 2 2 2 2 2 1 1 1 1 1 2 2 2 2 2 2 3 3 2 2 2 1 1 1 1 1 1 2 3
5 5 5 5 5 4 4 4 3 3 3 2 2 2 2 2 1 1 1 1 0 -0 0 0 0 1 1 1 1 1 1 2 1 1 1 1 0 0 0 0 0 1 1
5 4 4 4 4 4 3 3 2 2 2 2 1 1 1 1 1 0 0 0 -0 -0 -1 -1 -0 -0 -0 -0 -0 -0 0 0 0 0 0 0 -0 -0 -0 -0 -0 -0 0
4 4 4 3 3 3 3 2 2 1 1 1 1 0 0 -0 -0 -1 -1 -1 -1 -1 -1 -1 -1 -1 -1 -1 -1 -1 -1 -1 -1 -1 -1 -1 -1 -1 -1 -1 -1 -1 -0
4 3 3 3 2 2 2 1 1 0 -0 -0 -1 -1 -1 -1 -2 -2 -2 -2 -2 -2 -2 -2 -2 -2 -2 -2 -2 -2 -2 -2 -2 -2 -2 -1 -1 -1 -1 -1 -1 -1 -1
3 3 2 2 2 1 1 0 -0 -1 -1 -1 -2 -2 -2 -3 -3 -3 -3 -4 -4 -4 -3 -3 -3 -3 -3 -3 -3 -3 -2 -2 -2 -2 -2 -2 -2 -2 -2 -2 -2 -2 -2
2 2 2 1 1 0 -0 -0 -1 -2 -2 -2 -3 -3 -4 -4 -4 -4 -4 -4 -4 -4 -4 -4 -4 -4 -4 -3 -3 -3 -3 -3 -3 -3 -3 -3 -3 -3 -3 -2 -2 -2 -2
2 1 1 0 -0 -1 -1 -1 -2 -3 -3 -3 -3 -4 -4 -4 -5 -5 -4 -4 -4 -4 -4 -4 -4 -4 -4 -3 -3 -3 -3 -3 -3 -3 -3 -3 -3 -3 -3 -3 -3 -3 -2
1 0 -0 -1 -1 -1 -2 -2 -3 -3 -4 -4 -4 -4 -5 -5 -5 -5 -5 -4 -4 -4 -4 -4 -3 -3 -4 -4 -4 -4 -4 -4 -4 -3 -3 -3 -3 -3 -3 -3 -3 -3 -3
-0 -1 -1 -1 -2 -2 -2 -3 -4 -4 -4 -4 -5 -5 -5 -5 -5 -5 -5 -5 -4 -4 -4 -4 -4 -4 -4 -4 -4 -4 -4 -4 -4 -4 -4 -4 -4 -4 -3 -3 -3 -3 -3
-1 -1 -2 -2 -2 -3 -3 -4 -4 -5 -5 -5 -5 -5 -5 -5 -5 -5 -5 -5 -4 -4 -4 -4 -4 -4 -4 -4 -4 -4 -4 -4 -4 -4 -4 -4 -4 -4 -4 -4 -4 -4 -4
-2 -2 -2 -3 -3 -3 -4 -5 -5 -5 -5 -5 -5 -5 -5 -6 -5 -5 -5 -5 -5 -4 -4 -4 -4 -4 -4 -4 -4 -4 -4 -4 -4 -4 -4 -4 -4 -4 -4 -4 -4 -4 -4
-2 -3 -3 -3 -4 -4 -5 -5 -5 -5 -5 -5 -5 -6 -6 -6 -6 -5 -5 -5 -5 -5 -5 -5 -4 -4 -4 -4 -4 -4 -4 -4 -4 -4 -4 -4 -4 -4 -4 -4 -4 -4 -4
Wind_Speed
6 7 8 8 9 9 9 9 9 10 10 11 12 11 11 13 14 16 16 18 19 20 21 22 22 22 22 22 21 21 21 20 20 20 19 18 18 17 16 16 15 14 13
8 7 7 8 9 9 9 8 8 8 7 8 8 10 12 14 16 17 18 20 22 23 24 24 25 25 25 25 25 24 24 24 23 23 22 22 21 21 20 19 18 17 17
9 8 6 5 8 10 10 9 9 8 6 6 6 8 11 13 15 16 18 19 20 23 25 26 27 27 28 28 28 27 27 27 26 26 26 25 25 24 23 23 22 21 20
9 7 4 5 8 8 7 4 4 5 5 6 6 6 7 10 13 16 18 19 20 20 23 27 28 29 29 30 30 30 30 29 29 29 29 28 28 27 27 26 25 24 23
6 6 4 5 7 6 5 4 5 5 6 6 7 7 6 7 8 13 13 17 20 21 22 25 28 29 30 31 32 32 32 32 32 32 32 31 31 30 30 29 28 27 26
6 6 5 6 7 4 4 4 6 6 6 6 8 9 8 8 7 9 11 16 18 21 21 22 23 25 29 31 31 33 33 34 34 34 34 34 34 33 33 32 31 30 29
6 5 4 5 5 5 6 6 5 6 6 5 5 7 7 10 13 13 10 10 12 18 19 20 20 21 22 28 30 31 32 34 35 36 36 36 36 36 35 35 34 33 32
5 5 4 3 4 5 6 6 6 5 5 4 4 4 5 5 7 10 8 10 11 10 11 16 18 19 20 20 24 29 30 31 33 35 36 37 37 38 37 37 37 36 35
4 4 4 4 4 4 5 6 6 7 6 5 6 5 5 5 5 5 7 6 6 6 7 9 14 18 20 20 21 26 30 31 32 33 34 35 36 38 38 39 38 38 37
3 3 4 4 4 4 6 6 6 6 6 6 5 6 8 7 6 6 4 5 7 8 8 8 8 14 18 19 21 26 29 31 32 32 33 33 34 36 37 39 39 39 39
2 3 4 4 4 4 6 7 6 6 5 6 6 6 7 7 9 10 11 7 7 8 10 11 9 10 17 19 19 24 29 31 32 32 32 32 33 34 36 37 39 40 40
3 3 3 4 5 4 6 7 7 8 7 8 7 7 7 7 7 9 12 11 10 8 9 8 8 7 12 16 20 25 29 31 31 32 31 31 32 33 34 35 37 38 39
4 4 3 4 4 6 7 6 7 8 8 9 9 8 8 9 8 9 12 14 13 9 8 8 8 7 13 15 18 24 28 31 31 31 31 31 31 32 33 34 35 36 38
4 4 5 6 7 8 7 6 7 8 8 9 10 10 8 9 8 8 9 12 16 14 9 10 7 8 9 13 16 21 21 28 29 29 29 29 30 31 32 33 34 35 36
5 6 6 7 7 7 7 8 7 8 8 9 9 10 9 8 8 8 8 9 12 19 17 9 6 7 6 11 17 17 15 23 28 28 28 28 29 30 31 32 33 34 35
6 7 8 8 8 8 8 8 8 9 9 9 8 10 10 9 8 8 8 9 9 14 20 11 7 7 8 10 21 19 16 26 27 29 29 29 29 30 31 31 32 33 34
7 8 8 9 9 9 9 9 9 10 10 10 10 10 10 10 8 8 8 8 9 10 18 17 8 7 9 10 12 13 16 14 16 27 30 31 30 30 30 30 31 32 33
8 8 9 9 10 10 9 9 10 10 10 10 10 10 11 11 11 9 9 10 10 10 14 21 14 8 9 10 10 12 12 14 12 25 30 31 31 30 30 30 30 30 31
9 9 9 10 10 10 10 10 10 10 10 10 10 11 12 12 14 12 12 13 12 14 12 16 18 10 9 9 11 12 13 11 14 21 26 28 29 30 29 29 29 29 30
9 10 10 10 11 11 11 11 11 11 11 11 11 12 13 14 15 15 15 14 14 14 13 15 16 13 11 9 9 10 11 9 12 12 17 21 25 28 28 28 28 28 28
10 10 11 11 11 10 10 11 10 10 11 11 12 12 14 19 23 20 17 13 13 14 14 15 16 15 12 9 10 9 12 10 10 10 10 11 11 10 12 21 25 26 26
10 11 11 11 11 11 20 25 20 12 10 11 12 12 14 18 22 27 29 27 23 17 14 14 15 15 15 12 10 10 12 13 12 6 9 11 8 10 9 8 20 25 25
10 11 11 11 11 13 24 27 26 17 12 11 12 12 15 16 22 15 21 26 25 28 27 19 17 17 16 13 12 14 14 14 14 7 7 11 8 10 9 13 23 24 24
10 10 11 11 11 14 25 27 27 17 12 12 12 13 15 15 16 18 15 15 15 16 20 16 14 16 16 14 14 15 15 15 14 10 9 12 10 10 11 9 20 24 24
10 10 10 11 11 14 23 26 27 12 11 12 12 13 15 15 23 28 20 16 16 15 20 26 27 25 27 28 23 13 11 12 13 9 7 8 9 8 8 8 13 22 23
10 11 11 10 11 12 21 26 26 10 11 11 11 12 20 22 26 28 18 15 18 16 14 15 18 20 18 19 25 15 11 13 12 8 6 7 7 6 6 6 8 8 11
Wind_Direction
189 202 217 227 231 230 224 224 232 245 248 246 244 241 244 247 247 246 245 248 252 254 257 259 259 258 258 257 257 255 253 253 252 251 250 249 248 248 248 248 249 248 249
201 206 218 227 233 240 245 242 244 251 253 252 249 248 248 249 250 249 248 248 250 253 256 258 259 258 257 257 256 255 254 251 250 249 248 247 247 246 246 246 246 247 246
217 216 220 227 234 240 244 247 254 262 264 263 259 260 260 256 253 252 252 249 247 250 254 257 259 260 259 258 257 256 254 253 252 250 248 247 246 245 244 244 244 244 244
230 231 230 235 243 247 245 241 243 257 261 260 259 257 256 256 254 252 252 250 247 246 249 255 258 260 260 260 259 257 256 254 253 252 250 248 246 245 244 243 243 242 242
246 247 246 250 257 255 249 245 247 245 258 265 267 265 260 258 258 259 254 251 248 245 244 251 257 260 262 263 262 261 259 256 254 253 251 249 248 245 244 243 242 242 241
266 262 257 261 265 260 255 248 250 251 252 259 272 273 267 263 260 258 257 256 253 250 247 247 250 255 261 264 265 265 264 261 257 254 252 251 249 247 245 244 242 241 241
266 260 257 263 261 256 256 254 253 259 263 262 281 287 273 257 255 255 251 249 248 247 246 245 246 246 253 260 264 267 267 266 263 260 256 253 251 249 247 245 243 241 240
266 255 247 250 252 255 261 261 256 260 264 249 250 292 302 298 262 254 251 245 244 241 240 244 246 247 246 248 253 262 267 268 268 266 262 258 254 251 249 247 245 243 241
269 261 255 257 262 256 257 256 250 249 256 251 219 224 262 274 308 290 280 274 266 257 248 247 247 248 248 246 247 256 261 266 269 269 268 265 261 256 252 250 247 245 243
264 270 273 273 271 267 266 263 257 248 247 256 251 232 233 238 268 292 275 277 286 279 272 266 257 251 248 246 246 252 259 264 267 269 270 269 267 263 258 254 250 248 245
290 272 269 277 275 268 268 268 271 264 252 250 248 248 253 253 246 262 278 270 263 257 259 259 256 253 251 247 244 249 258 263 266 269 270 271 270 268 265 260 256 251 248
312 301 287 279 275 269 267 267 264 262 257 256 254 248 247 248 250 254 270 274 273 264 259 262 263 259 259 254 251 253 256 261 265 267 268 269 270 270 270 267 263 258 253
314 311 316 294 283 274 270 265 264 261 258 257 256 255 252 251 250 256 268 278 279 276 265 261 260 264 268 264 260 256 257 261 264 265 267 268 269 270 269 269 267 264 260
295 299 298 286 282 281 278 268 266 261 259 256 259 258 258 256 253 253 261 276 284 283 267 259 257 259 269 274 273 267 263 264 265 265 267 268 269 270 269 268 267 265 263
292 292 290 286 282 281 278 276 270 267 264 260 259 259 260 259 255 256 256 255 271 285 283 267 257 258 271 280 283 285 274 272 272 270 269 268 269 269 269 268 266 264 262
296 297 293 290 288 287 285 283 280 275 273 269 265 265 265 265 262 258 257 258 256 270 281 277 259 253 264 275 281 284 283 283 279 276 274 273 272 271 270 268 266 264 262
301 299 296 294 292 289 287 285 283 284 283 283 283 281 278 277 276 272 268 266 264 264 277 283 269 261 259 266 274 275 277 277 276 277 276 274 272 271 270 269 267 264 262
303 300 297 294 291 290 289 287 288 289 287 288 288 290 291 294 290 288 283 278 275 271 275 283 284 273 263 265 268 268 273 273 266 272 274 273 272 271 270 269 267 265 263
300 297 296 293 292 290 287 284 282 282 281 282 285 287 288 289 286 283 280 279 278 278 274 279 284 281 273 268 269 269 266 267 268 270 271 272 271 271 271 270 268 266 263
296 294 290 288 286 285 284 283 280 279 277 276 276 278 280 279 280 280 280 275 274 273 271 272 277 279 275 265 262 267 271 262 264 266 267 268 268 269 268 269 269 268 265
290 287 286 285 283 285 284 283 280 276 275 277 278 277 277 280 281 282 280 274 269 270 271 271 273 276 275 270 266 264 270 270 263 256 259 260 260 256 260 265 267 269 267
286 286 285 285 285 290 296 300 300 291 283 283 285 283 284 286 286 286 286 286 283 278 277 276 279 277 278 274 271 269 272 274 274 237 247 257 248 250 247 242 256 261 263
286 286 286 286 286 290 300 303 303 302 291 287 286 287 290 289 291 284 284 285 285 283 282 279 278 277 278 274 271 272 270 269 270 256 252 264 251 254 249 251 255 256 258
286 287 288 288 289 295 304 305 305 301 290 285 283 283 284 284 284 285 280 276 273 273 274 275 269 269 268 266 259 262 266 269 267 258 245 263 257 252 250 242 252 253 257
289 287 287 289 291 297 303 304 303 293 288 284 282 284 288 287 288 292 291 286 284 280 281 279 277 276 274 275 272 266 260 265 269 261 228 245 255 252 246 241 243 249 253
288 289 288 288 290 293 300 304 304 296 292 291 288 284 290 293 295 296 294 289 288 286 282 280 279 278 277 275 277 270 263 266 270 268 225 226 244 238 249 237 232 236 245
Height
1552 1552 1552 1552 1552 1552 1551 1551 1550 1549 1549 1548 1547 1546 1545 1544 1543 1543 1542 1542 1541 1541 1541 1540 1540 1539 1539 1538 1538 1537 1537 1537 1536 1536 1536 1536 1536 1535 1535 1535 1535 1536 1536
1549 1550 1549 1549 1549 1549 1549 1548 1547 1547 1546 1545 1544 1542 1541 1540 1539 1538 1537 1536 1536 1535 1535 1535 1535 1534 1534 1533 1533 1532 1532 1532 1532 1532 1532 1531 1531 1531 1531 1531 1531 1532 1532
1547 1547 1547 1547 1546 1546 1545 1545 1544 1543 1542 1541 1539 1538 1536 1535 1533 1532 1531 1530 1529 1529 1528 1528 1528 1528 1527 1527 1527 1527 1526 1526 1526 1526 1526 1526 1526 1526 1526 1526 1526 1527 1527
1544 1544 1543 1543 1543 1542 1542 1541 1540 1538 1537 1535 1534 1532 1531 1529 1527 1526 1525 1524 1523 1522 1521 1521 1520 1520 1520 1520 1520 1520 1520 1519 1519 1520 1520 1520 1520 1520 1520 1521 1521 1521 1522
1540 1540 1540 1539 1539 1538 1537 1536 1535 1534 1532 1530 1528 1526 1524 1523 1521 1520 1518 1517 1515 1514 1513 1513 1512 1512 1512 1511 1511 1512 1512 1512 1512 1512 1512 1512 1513 1513 1514 1514 1514 1515 1515
1537 1536 1535 1535 1534 1533 1532 1531 1530 1529 1527 1525 1522 1519 1517 1516 1514 1512 1511 1509 1508 1507 1506 1505 1504 1504 1503 1503 1502 1502 1503 1503 1503 1503 1503 1504 1504 1505 1506 1506 1507 1508 1509
1533 1532 1531 1531 1530 1529 1528 1527 1526 1524 1522 1521 1518 1513 1509 1508 1506 1504 1503 1501 1500 1500 1499 1498 1497 1496 1495 1495 1494 1494 1493 1493 1493 1494 1494 1495 1495 1496 1497 1498 1499 1500 1501
1529 1529 1528 1527 1526 1525 1524 1523 1522 1519 1518 1517 1514 1510 1503 1499 1497 1497 1496 1495 1494 1493 1492 1492 1491 1489 1488 1486 1486 1485 1484 1483 1483 1484 1484 1485 1486 1487 1488 1489 1490 1491 1492
1527 1526 1525 1524 1522 1521 1520 1519 1517 1515 1513 1512 1511 1509 1504 1495 1492 1489 1490 1490 1489 1488 1487 1485 1483 1482 1481 1479 1477 1477 1476 1475 1474 1473 1474 1475 1476 1477 1478 1479 1480 1482 1483
1525 1523 1522 1521 1519 1518 1516 1514 1513 1511 1509 1507 1506 1504 1501 1496 1492 1482 1479 1481 1481 1480 1479 1478 1476 1474 1473 1471 1470 1468 1467 1466 1465 1464 1463 1464 1465 1466 1467 1468 1470 1471 1473
1522 1521 1519 1517 1516 1514 1512 1510 1508 1506 1504 1502 1500 1497 1495 1492 1488 1483 1473 1471 1470 1470 1470 1469 1468 1466 1465 1463 1461 1460 1459 1458 1456 1455 1454 1454 1454 1455 1456 1457 1458 1460 1462
1519 1517 1515 1514 1511 1509 1507 1505 1503 1501 1498 1496 1493 1491 1488 1485 1482 1478 1470 1464 1461 1460 1461 1460 1460 1458 1457 1455 1453 1452 1451 1449 1447 1446 1445 1444 1443 1443 1444 1445 1447 1448 1450
1515 1514 1512 1509 1507 1504 1502 1499 1497 1494 1492 1489 1486 1484 1481 1478 1476 1472 1466 1458 1453 1450 1450 1450 1450 1449 1448 1446 1444 1443 1442 1440 1439 1437 1436 1435 1434 1433 1433 1433 1434 1436 1438
1511 1509 1507 1504 1502 1499 1496 1493 1490 1487 1484 1481 1478 1476 1473 1471 1469 1466 1462 1456 1447 1440 1438 1438 1439 1440 1439 1438 1436 1434 1432 1431 1429 1428 1426 1425 1424 1423 1422 1422 1422 1424 1426
1507 1505 1502 1499 1496 1493 1490 1486 1483 1480 1477 1474 1471 1468 1465 1462 1460 1457 1455 1452 1446 1434 1425 1427 1428 1429 1429 1428 1427 1425 1423 1421 1420 1419 1417 1416 1414 1413 1412 1411 1411 1412 1413
1502 1499 1496 1493 1489 1486 1483 1479 1476 1472 1469 1466 1463 1460 1456 1453 1451 1448 1445 1443 1439 1433 1419 1415 1417 1418 1418 1417 1417 1415 1412 1411 1410 1409 1408 1406 1404 1403 1402 1401 1401 1401 1402
1497 1494 1490 1486 1483 1479 1475 1472 1468 1465 1461 1457 1454 1451 1447 1445 1441 1438 1435 1432 1429 1426 1415 1405 1407 1408 1407 1406 1405 1404 1402 1400 1399 1398 1397 1396 1394 1393 1392 1391 1390 1390 1391
1491 1487 1483 1479 1475 1471 1468 1464 1460 1456 1452 1448 1445 1441 1437 1434 1430 1427 1424 1421 1418 1416 1411 1399 1395 1397 1397 1396 1394 1392 1391 1389 1388 1387 1386 1385 1383 1382 1381 1380 1380 1380 1380
1484 1480 1476 1472 1468 1464 1460 1456 1451 1447 1443 1439 1436 1432 1427 1424 1419 1417 1413 1410 1407 1405 1402 1395 1387 1386 1386 1385 1383 1381 1380 1378 1377 1376 1375 1374 1373 1372 1371 1370 1370 1370 1370
1477 1473 1469 1464 1460 1456 1451 1447 1443 1438 1434 1430 1426 1422 1418 1415 1410 1407 1403 1400 1397 1394 1391 1387 1380 1377 1376 1375 1374 1371 1368 1367 1366 1365 1364 1363 1362 1361 1361 1360 1360 1360 1360
1470 1465 1461 1456 1453 1448 1444 1439 1434 1429 1425 1420 1416 1413 1409 1405 1402 1399 1395 1391 1389 1385 1381 1378 1373 1369 1367 1366 1365 1362 1359 1357 1355 1355 1353 1352 1352 1351 1350 1350 1350 1350 1350
1463 1458 1454 1449 1445 1441 1436 1432 1428 1422 1417 1412 1407 1403 1400 1396 1392 1389 1387 1384 1381 1377 1373 1370 1365 1362 1359 1358 1356 1354 1351 1348 1345 1345 1344 1341 1342 1340 1340 1341 1341 1341 1340
1455 1451 1446 1442 1437 1432 1428 1424 1419 1414 1408 1403 1399 1395 1391 1387 1384 1380 1376 1373 1371 1368 1366 1362 1357 1353 1351 1350 1348 1345 1343 1340 1337 1336 1336 1332 1332 1330 1331 1331 1332 1332 1332
1448 1443 1438 1434 1429 1424 1420 1415 1410 1405 1400 1395 1392 1388 1383 1379 1376 1372 1367 1363 1360 1357 1355 1352 1348 1344 1342 1340 1338 1336 1333 1330 1328 1327 1327 1324 1323 1322 1322 1322 1323 1323 1324
1441 1436 1431 1426 1421 1415 1412 1407 1402 1397 1391 1387 1384 1380 1376 1371 1367 1364 1360 1354 1350 1346 1345 1342 1339 1335 1333 1331 1329 1327 1324 1322 1318 1317 1318 1316 1314 1314 1313 1313 1314 1315 1316
1433 1428 1423 1419 1413 1407 1403 1399 1395 1390 1384 1379 1375 1371 1368 1364 1359 1356 1352 1346 1341 1337 1334 1330 1327 1325 1322 1320 1319 1318 1315 1313 1311 1309 1308 1308 1307 1307 1305 1305 1306 1307 1308